{"data":{"norad_id":62521,"epoch":"2026-05-24T22:04:02.597664Z","epoch_age_seconds":82673,"freshness":"FRESH","line1":"1 62521U 25004L   26144.91947451  .00147002  00000+0  11276-2 0  9996","line2":"2 62521  42.9982 331.5816 0001739 256.6169 103.4505 15.70869201 79197","mean_motion":15.70869201,"eccentricity":0.0001739,"inclination_deg":42.9982,"raan_deg":331.5816,"arg_perigee_deg":256.6169,"mean_anomaly_deg":103.4505,"bstar":0.0011276,"rev_number":7919,"period_min":91.66899440662,"perigee_km":355.2404629367,"apogee_km":357.58273894011,"semimajor_km":6734.5486009384,"source":"CELESTRAK","updated_at":"2026-05-25T13:38:19.703877Z"}}